CAPE
0 0 65 0 95 259 430 376 269 126 76 84 3 11 5 1 3 1 1 1 1 1 1 1 0 0 1 6 11 2 1 40 34 66 61 129 124 74 59 65 34 0 0
0 2 4 1 12 165 263 231 57 11 47 24 1 1 1 0 0 0 1 0 1 2 2 2 1 0 3 7 10 14 11 6 19 44 34 31 33 42 19 9 7 0 0
0 2 1 2 15 17 80 2 0 0 8 1 7 4 1 1 0 0 0 0 0 1 1 0 1 0 0 0 0 0 0 2 3 3 8 13 11 3 2 0 0 0 1
1 5 1 2 8 1 0 0 0 0 0 0 6 0 0 0 0 0 0 0 0 0 0 0 0 0 0 0 0 0 0 4 6 8 6 9 2 9 4 0 0 1 1
2 2 1 4 9 13 0 0 0 1 1 0 3 0 0 1 1 0 0 0 0 0 0 0 0 0 0 0 0 0 0 0 0 2 4 7 7 5 6 0 0 0 1
3 1 9 17 0 0 0 0 0 2 1 1 0 3 4 2 0 0 0 0 0 0 0 0 0 0 0 0 0 0 0 0 0 0 0 0 1 0 0 0 0 0 1
4 3 0 2 1 1 0 0 1 2 3 2 1 1 1 0 0 0 0 0 0 0 0 0 0 0 0 0 1 1 0 1 1 0 0 0 0 0 0 0 1 0 0
4 4 1 1 0 1 4 4 2 3 7 8 2 5 2 0 0 0 0 2 0 0 0 0 0 0 0 0 1 0 0 0 0 0 0 0 0 0 0 0 0 0 0
3 4 4 2 0 2 5 4 4 3 2 1 0 0 0 0 1 0 0 0 2 0 0 0 0 0 0 0 0 0 0 0 2 2 3 2 1 1 0 0 0 0 0
0 3 4 3 1 0 0 0 0 0 1 1 0 0 0 1 0 1 1 0 1 1 0 0 0 0 1 1 0 0 0 0 1 0 0 0 0 1 0 0 0 0 0
0 1 2 1 3 1 0 0 0 0 0 0 0 0 0 0 0 0 1 0 0 0 0 0 0 0 1 1 0 0 0 0 0 0 0 0 0 0 0 0 0 0 0
0 0 0 0 0 2 1 0 0 0 0 0 0 1 1 0 2 1 0 0 0 0 0 0 0 2 1 1 0 1 1 0 0 0 0 0 0 0 0 0 0 0 0
1 0 0 0 0 0 0 0 0 0 0 1 1 0 1 1 0 4 3 2 1 0 0 4 4 4 3 2 4 2 0 0 0 0 0 0 0 0 0 0 0 0 0
4 1 1 0 0 0 0 0 0 0 0 0 1 0 0 1 0 0 0 0 2 0 0 0 0 0 0 0 0 0 0 0 0 0 0 0 0 0 0 0 0 0 0
4 5 2 2 1 0 0 0 0 0 1 0 0 0 0 0 1 1 0 0 0 1 0 0 0 0 0 1 0 0 0 0 0 0 0 0 0 0 0 0 0 0 0
2 2 4 4 2 1 0 0 11 8 10 9 6 1 4 9 11 11 8 10 6 1 0 1 1 1 1 0 0 0 0 0 0 0 0 0 0 0 0 0 0 0 0
2 2 1 1 4 5 2 1 0 1 11 10 12 11 9 6 3 4 3 2 2 0 0 0 0 0 0 0 0 0 0 0 0 0 0 0 0 0 0 0 0 0 0
1 0 0 1 2 5 4 4 1 0 0 0 4 2 3 3 8 8 3 0 0 0 0 0 0 0 0 0 0 0 0 0 0 0 0 0 0 0 0 0 0 0 0
5 2 1 1 1 1 2 2 2 1 0 1 2 2 0 1 0 0 0 0 0 0 0 0 0 0 0 0 0 0 0 0 0 0 0 0 0 0 0 0 0 0 0
7 1 2 3 2 2 1 0 0 0 0 0 0 2 0 0 0 0 0 0 0 0 0 0 0 0 0 0 0 0 0 0 0 0 0 0 0 0 0 0 0 0 0
11 6 1 2 2 2 2 2 2 1 0 0 0 0 0 0 0 0 0 0 0 0 0 0 0 0 0 0 0 0 0 0 0 0 0 0 0 0 0 0 0 0 0
5 2 1 2 2 2 3 1 0 0 0 0 0 0 0 0 0 0 0 0 0 0 0 0 0 0 0 0 0 0 0 0 0 0 0 0 0 0 0 0 0 0 0
7 8 8 7 5 3 4 2 1 0 0 0 0 0 0 0 0 0 0 0 0 0 0 0 0 0 0 0 0 0 0 0 0 0 0 0 0 0 0 0 0 0 0
10 3 1 4 3 0 0 0 0 0 0 0 0 0 0 0 0 0 0 0 0 0 0 0 0 0 0 0 0 0 0 0 0 0 0 0 0 0 0 0 0 0 0
11 9 8 7 4 3 0 0 0 2 0 0 0 0 0 0 0 0 0 0 0 0 0 0 0 0 0 0 0 0 0 0 0 0 0 0 0 0 0 0 0 0 0
1 1 3 3 4 1 0 0 0 0 0 0 0 0 0 0 0 0 0 0 0 0 0 0 0 0 0 0 0 0 0 0 0 0 0 0 0 0 0 0 0 0 0
CIN
0 0 -311 -18 -263 -162 -66 -73 -147 -263 -313 -289 -185 -3 0 -3 0 0 0 0 0 0 0 0 0 0 -18 -22 -24 -63 -56 -74 -21 -35 -59 -49 -49 -76 -104 -92 -112 0 0
0 -17 -204 -392 -347 -197 -124 -127 -273 -375 -334 -340 -13 -5 -8 0 0 0 0 0 0 0 0 0 -2 0 -13 -13 -28 -28 -50 -84 -47 -18 -58 -58 -42 -53 -77 -87 -98 0 0
0 0 -26 -52 -19 -103 -208 -288 0 0 -103 -4 -7 -1 -2 0 0 0 0 0 0 0 0 0 0 0 0 0 0 0 0 -67 -61 -38 -45 -56 -56 -92 -95 0 0 0 0
0 0 -16 -21 -8 -6 -13 0 0 -4 -1 0 -11 0 0 0 0 0 0 0 0 0 0 0 0 0 0 0 0 0 -3 -37 -18 -51 -65 -57 -59 -80 -69 0 0 0 0
0 0 -12 -7 -2 -8 0 0 0 -10 -8 -2 -5 -10 -5 0 0 0 0 0 0 0 0 0 0 0 0 0 0 0 0 0 0 -27 -37 -24 -37 -76 -48 -50 0 0 0
0 0 0 0 0 0 0 0 -2 -11 -9 -3 0 -6 -1 -1 0 0 0 0 0 0 0 0 0 0 0 0 0 0 0 0 0 -35 0 -1 -39 0 0 0 0 0 0
0 0 0 -1 0 0 0 -4 -13 -8 -6 -3 -2 -1 -3 -2 0 0 0 0 0 0 0 0 0 0 0 0 0 0 0 0 0 0 0 0 0 0 0 0 0 0 0
0 0 0 0 0 0 -1 -1 -13 -10 -6 -7 -9 -7 -5 0 0 0 0 -2 0 0 0 0 0 0 0 0 0 0 0 0 0 0 0 0 0 0 0 0 0 0 0
0 0 0 0 0 0 -1 -5 -3 -3 -7 -1 -2 0 0 0 0 0 0 -1 -7 0 0 0 0 0 0 0 0 0 0 0 0 0 0 0 0 0 0 0 0 0 0
0 0 0 0 0 0 0 0 0 0 0 0 0 0 0 0 0 0 0 0 0 0 0 0 0 0 0 0 0 0 0 0 0 0 0 0 0 0 0 0 0 0 0
0 0 0 0 0 0 0 0 0 0 0 0 0 0 0 0 0 0 0 0 0 0 0 0 0 0 0 0 0 0 0 0 0 0 0 0 0 0 0 0 0 0 0
0 0 0 0 0 0 0 0 0 0 0 0 0 0 0 0 0 0 0 0 0 0 0 0 0 0 0 0 0 0 0 0 0 0 0 0 0 0 0 0 0 0 0
0 0 0 0 0 0 0 0 0 0 0 0 0 0 0 0 0 0 0 0 0 0 0 0 0 0 0 0 0 0 0 0 0 0 0 0 0 0 0 0 0 0 0
0 0 0 0 0 0 0 0 0 0 0 0 0 0 0 0 0 0 0 0 0 0 0 0 0 0 0 0 0 0 0 0 0 0 0 0 0 0 0 0 0 0 0
0 0 0 0 0 0 0 0 0 0 0 0 0 0 0 0 0 0 0 0 0 0 -1 0 -1 -1 -1 0 0 0 0 -1 0 0 0 0 0 0 0 0 0 0 0
0 0 0 0 0 -1 0 0 0 0 0 0 0 -1 0 0 0 0 0 0 0 -2 -1 -1 -1 -1 -1 0 0 0 0 0 0 0 0 0 0 0 0 0 0 0 0
0 0 0 0 0 0 0 0 0 0 0 0 0 0 0 0 0 0 0 0 0 0 0 -1 -1 0 0 0 0 0 0 0 0 0 0 0 0 0 0 0 0 0 0
0 0 0 0 0 -1 0 0 -1 -1 0 0 0 0 0 0 0 0 0 0 0 0 0 0 0 0 0 0 0 0 0 0 0 0 0 0 0 0 0 0 0 0 0
0 0 -1 -1 -1 -1 0 0 0 0 0 0 -1 0 0 0 0 0 0 0 0 0 0 0 0 0 0 0 0 0 0 0 0 0 0 0 0 0 0 0 0 0 0
0 0 0 0 -1 0 0 0 0 0 0 0 0 -1 -1 0 0 0 0 0 0 0 0 0 0 0 0 0 0 0 0 0 0 0 0 0 0 0 0 0 0 0 0
0 0 -1 0 0 0 0 0 0 0 0 0 0 0 0 0 0 0 0 0 0 0 0 0 0 0 0 0 0 0 0 0 0 0 0 0 0 0 0 0 0 0 0
0 0 0 0 0 0 0 -1 -1 0 0 0 0 0 0 0 0 0 0 0 0 0 0 0 0 0 0 0 0 0 0 0 0 0 0 0 0 0 0 0 0 0 0
0 0 0 0 0 0 0 -1 -1 0 0 0 0 0 0 0 0 0 0 0 0 0 0 0 0 0 0 0 0 0 0 0 0 0 0 0 0 0 0 0 0 0 0
0 0 0 0 0 0 0 0 0 0 0 0 0 0 0 0 0 0 0 0 0 0 0 0 0 0 0 0 0 0 0 0 0 0 0 0 0 0 0 0 0 0 0
0 0 0 0 0 -1 -2 0 -1 -1 -1 0 0 0 0 0 0 0 0 0 0 0 0 0 0 0 0 0 0 0 0 0 0 0 0 0 0 0 0 0 0 0 0
0 0 0 -1 -1 -1 -1 0 0 0 0 0 0 0 0 0 0 0 0 0 0 0 0 0 0 0 0 0 0 0 0 0 0 0 0 0 0 0 0 0 0 0 0
Wind_Speed
16 21 12 10 10 11 8 7 7 9 8 11 12 12 12 12 11 11 10 11 13 12 11 10 12 10 7 6 4 2 3 4 5 2 3 4 4 6 4 4 7 8 7
15 17 8 8 9 10 5 7 8 9 8 12 11 11 10 11 11 11 11 10 13 13 12 12 10 9 12 9 5 5 4 4 1 3 3 3 3 4 3 2 7 6 9
15 16 4 7 9 8 5 7 8 8 9 9 13 12 11 11 10 10 11 11 11 12 13 12 14 12 12 11 9 6 2 2 3 3 3 2 2 3 4 5 6 6 8
15 15 8 9 10 9 8 8 9 7 9 9 9 10 10 10 10 9 9 9 9 8 8 13 14 15 13 12 11 11 6 4 2 3 2 1 1 3 3 3 3 3 5
17 15 9 9 10 9 11 10 9 7 8 7 9 9 10 9 8 10 9 9 9 8 7 7 8 13 14 14 9 10 10 6 3 3 2 3 3 2 5 4 3 4 3
17 13 7 8 7 9 10 10 10 9 9 8 11 10 10 7 13 13 10 8 8 8 7 6 6 9 12 16 14 12 10 9 7 6 5 4 6 4 4 4 4 4 3
16 9 9 9 7 6 9 11 9 9 9 9 9 9 8 7 15 13 11 7 8 7 7 7 5 5 8 7 7 15 14 14 3 6 7 5 4 4 3 5 4 3 3
16 15 8 8 7 8 9 10 10 7 6 9 9 8 6 6 10 10 10 6 6 7 7 8 8 8 9 8 10 9 9 8 5 5 7 5 2 2 3 2 4 7 7
16 15 14 12 6 8 11 11 9 9 7 6 7 10 11 10 12 6 9 5 5 4 5 7 1 8 11 18 12 11 11 11 17 23 21 19 19 16 6 3 3 4 3
15 14 13 12 10 7 6 6 4 10 11 10 12 11 14 10 14 8 4 4 6 6 6 7 13 4 15 19 13 13 12 9 9 8 7 12 13 14 17 8 2 4 4
13 12 12 13 12 9 8 7 10 13 12 12 14 12 14 14 13 10 4 4 7 7 6 6 7 14 16 16 11 9 9 14 12 10 8 8 8 9 9 9 10 6 4
13 13 14 12 10 10 11 11 12 13 13 11 12 11 10 13 20 22 21 17 14 12 10 9 12 24 25 25 19 26 23 14 9 9 8 8 8 8 8 9 11 11 10
13 16 17 15 10 12 13 13 11 10 10 9 10 10 9 8 11 27 26 26 24 17 11 21 27 28 28 22 24 22 15 9 9 9 9 8 6 6 7 8 9 11 10
13 15 16 15 16 16 10 13 11 9 10 9 10 9 8 8 8 8 7 12 22 17 15 13 17 17 18 14 13 13 9 9 9 9 8 6 5 5 6 3 5 5 6
11 12 14 10 14 17 17 13 12 14 11 9 9 8 10 11 9 12 12 10 10 11 12 10 10 10 11 10 10 10 8 8 9 7 7 6 6 4 3 1 3 3 4
11 9 9 9 10 10 12 15 30 26 29 29 24 15 13 19 21 22 20 19 18 14 11 10 10 10 10 9 9 9 7 8 7 6 4 5 4 3 3 3 3 4 4
9 8 8 9 8 8 8 10 11 19 31 29 27 27 25 24 25 25 24 23 21 15 12 10 10 9 9 8 8 8 7 6 7 6 6 5 4 4 4 3 3 3 3
10 13 8 7 7 7 7 10 10 11 12 12 23 22 25 23 20 19 19 16 12 13 10 9 9 8 8 7 7 6 6 6 6 5 5 4 3 4 3 4 4 3 2
7 6 6 7 7 9 9 10 10 10 9 8 7 10 15 24 25 24 20 10 10 10 9 9 8 9 8 8 8 8 7 6 5 5 5 5 4 3 3 4 3 4 2
8 11 9 7 7 8 9 10 10 10 10 10 8 8 8 11 11 10 10 9 9 9 8 9 8 6 6 5 4 3 4 4 5 5 4 3 2 2 2 4 4 4 4
6 7 9 8 8 8 8 9 9 9 9 9 10 10 14 10 10 10 9 9 8 8 8 8 6 5 5 6 6 5 5 4 4 4 4 3 3 3 3 3 3 3 3
6 6 7 7 7 8 8 8 8 9 9 9 9 9 12 9 9 9 9 9 8 8 8 8 8 8 7 5 5 5 4 5 4 3 3 2 2 3 3 3 3 3 3
6 7 7 7 7 8 7 7 8 8 9 9 8 8 8 8 8 8 8 7 7 8 7 7 6 6 6 7 8 8 7 5 4 5 4 3 4 3 3 3 3 3 3
6 7 7 7 6 7 7 8 8 10 8 8 7 7 7 7 7 8 7 7 6 6 6 7 7 9 9 9 8 7 8 7 6 5 5 4 5 5 4 3 3 3 1
6 6 7 6 6 6 6 7 7 7 7 6 6 6 6 6 7 6 5 4 5 6 8 7 4 6 9 11 10 9 8 9 7 6 5 5 4 0 2 1 2 2 3
8 8 7 6 6 6 6 6 6 6 6 6 6 6 6 6 6 5 5 4 4 5 6 4 4 7 9 7 8 8 7 6 5 7 5 4 4 4 4 4 6 3 3
Wind_Direction
300 289 198 188 197 221 231 195 162 151 150 162 174 179 172 173 177 173 177 179 184 184 183 179 178 165 168 169 169 184 275 299 142 179 170 183 159 128 116 117 90 105 72
308 301 166 176 183 219 216 191 140 147 158 169 175 174 171 170 172 175 173 177 183 185 186 191 177 173 181 180 167 173 208 259 65 159 162 133 146 141 129 111 106 83 95
310 289 182 177 195 204 202 162 139 152 184 183 172 174 171 170 171 180 179 180 184 187 189 181 187 174 184 180 176 159 159 316 294 145 141 126 117 148 106 90 93 92 93
301 281 191 194 208 207 176 159 154 153 181 182 148 158 161 163 163 175 179 179 183 183 185 194 187 182 171 168 176 178 152 151 204 115 99 56 96 106 115 128 154 108 130
308 295 196 203 208 201 166 152 162 161 163 172 155 155 153 157 161 170 183 179 181 177 173 178 185 187 179 173 167 169 163 163 160 153 157 174 175 119 187 185 136 129 111
298 286 190 190 175 166 158 151 162 158 155 173 172 159 156 156 153 160 167 165 173 176 174 164 158 169 176 175 173 161 172 168 185 190 209 205 217 192 170 176 123 151 182
326 263 181 184 177 169 156 153 157 166 156 162 167 159 151 144 156 166 160 162 164 167 166 170 163 167 166 171 93 87 72 62 63 194 207 192 198 179 192 179 167 141 128
355 356 342 175 180 168 160 150 159 162 164 160 162 154 141 89 150 153 169 152 165 176 175 174 174 169 182 141 116 89 73 54 51 60 65 64 31 38 74 72 102 98 85
356 356 347 348 188 168 164 160 156 156 154 78 49 50 93 61 31 152 161 172 150 120 83 55 193 172 165 141 133 120 102 91 80 85 84 75 63 56 50 109 104 121 106
359 349 351 1 11 61 71 108 66 93 88 86 71 56 47 58 24 40 189 142 100 92 60 39 28 49 156 152 145 145 130 130 112 88 67 56 51 47 44 38 79 116 116
359 357 1 20 14 34 57 68 98 93 89 80 79 60 55 39 27 32 114 88 119 95 70 53 43 54 99 79 100 123 121 120 103 97 92 78 63 56 47 42 41 68 99
10 20 13 26 21 27 58 61 74 91 92 86 83 72 56 52 50 51 67 84 96 95 84 76 73 79 81 87 90 106 109 107 105 94 83 71 71 61 59 62 60 60 60
15 32 31 19 23 47 35 59 57 67 83 85 81 78 67 58 63 63 70 79 82 85 87 95 89 86 85 80 88 87 88 86 91 91 88 86 86 97 97 83 79 76 73
25 37 35 29 36 44 42 52 50 42 72 70 82 83 82 72 63 67 71 78 80 84 85 83 85 81 77 79 78 73 73 82 91 94 97 102 103 94 86 85 95 101 85
32 41 49 37 45 53 49 55 62 55 69 81 69 73 74 72 72 86 88 87 88 95 101 92 80 79 81 79 76 77 83 87 88 94 98 99 89 91 86 65 75 80 101
38 33 42 42 48 55 60 65 58 65 68 69 70 74 81 84 85 86 84 80 84 84 82 81 79 79 82 84 85 89 86 84 83 88 89 99 103 91 78 41 52 83 86
37 33 41 47 46 55 67 74 76 59 60 62 66 70 72 81 77 76 74 75 74 74 73 72 77 75 77 75 76 74 73 63 66 68 73 67 56 63 74 74 70 72 56
46 43 44 51 62 70 74 75 76 72 68 61 56 67 65 70 73 76 75 72 68 64 72 75 76 77 79 81 79 78 72 65 66 65 56 51 56 71 50 51 46 48 63
51 54 53 58 59 57 58 57 60 67 74 82 81 67 60 67 65 63 64 69 74 71 69 69 66 68 68 66 64 62 57 59 62 57 50 42 30 64 83 99 89 66 356
43 40 47 53 58 58 60 61 63 62 63 56 50 62 67 68 64 59 59 62 66 70 69 72 72 77 87 94 93 83 69 58 64 62 49 45 46 86 73 64 37 44 38
43 41 45 48 50 57 65 71 74 74 72 65 57 50 58 69 68 63 57 53 57 61 68 69 62 58 60 64 64 56 63 55 55 53 52 35 20 38 57 55 63 67 73
51 55 51 53 56 60 67 72 79 81 78 76 68 60 61 69 68 65 58 53 50 56 55 59 59 49 38 52 63 62 49 48 48 69 58 33 63 26 50 70 43 16 25
40 47 55 57 54 57 66 74 77 75 72 72 69 64 60 64 67 67 65 60 54 45 40 51 51 56 53 47 47 45 53 57 56 19 13 28 69 28 23 39 54 47 36
65 63 59 61 64 66 63 62 61 65 75 80 81 80 76 73 70 66 62 57 60 72 59 59 56 49 43 49 53 49 38 26 24 13 12 21 46 25 13 20 14 52 305
58 61 64 74 77 76 77 78 80 84 84 82 85 90 96 93 85 75 70 71 76 69 57 45 62 71 68 67 63 57 39 35 33 13 353 351 84 144 257 77 307 18 349
48 53 58 62 67 71 73 74 73 73 75 74 74 77 84 89 93 89 91 84 64 74 83 63 58 66 89 80 76 64 51 34 19 6 342 330 358 14 37 25 19 0 339